Preview of NWS' New Version of Forecast
This preview is not operational and should not be used for support decisions.

Regional Weather Roundup (RWR)

Issued by National Weather Service (NWS)

                            
000
ASUS46 KPQR 200310
RWROR 

OREGON REGIONAL WEATHER ROUNDUP
NATIONAL WEATHER SERVICE PORTLAND OR
700 PM PST TUE FEB 19 2019

NOTE: "FAIR" INDICATES FEW OR NO CLOUDS BELOW 12,000 FEET WITH
NO SIGNIFICANT WEATHER AND/OR OBSTRUCTIONS TO VISIBILITY.

ORZ001>013-200400-
NORTHWEST OREGON

  
CITY           SKY/WX    TMP DP  RH WIND       PRES   REMARKS
ASTORIA        CLOUDY    43  41  93 W7        29.97F                  
TILLAMOOK      LGT RAIN  45  43  93 W5        30.03F                  
NEWPORT        DRIZZLE   45  41  87 W10G18    30.10F                  
PORTLAND       CLOUDY    43  38  82 SW13      30.00F                  
VANCOUVER WA   CLOUDY    43  38  82 S6        30.00F                  
SCAPPOOSE      CLOUDY    44  40  85 SE5       29.98F                  
HILLSBORO      CLOUDY    43  38  82 S8        30.00F                  
AURORA         CLOUDY    42  39  89 S13       30.02F                  
MCMINNVILLE    CLOUDY    42  39  89 S7        30.01F                  
SALEM          LGT RAIN  43  38  82 S14       30.03F                  
CORVALLIS      CLOUDY    41  39  93 S9        30.08F                  
EUGENE         LGT RAIN  41  37  86 S9        30.10F                  
$$

ORZ021-028-200400-
SOUTHWEST OREGON

  
CITY           SKY/WX    TMP DP  RH WIND       PRES   REMARKS
NORTH BEND     LGT RAIN  43  43 100 S6        30.17F                  
BROOKINGS      CLOUDY    42  38  85 CALM      30.21F                  
ROSEBURG       CLOUDY    44  35  70 VRB5      30.13F                  
SEXTON SUMMIT  CLOUDY    28  26  92 W7        30.04F                  
GRANTS PASS    CLOUDY    37  32  81 CALM      30.17                   
MEDFORD        CLOUDY    40  29  64 CALM      30.14F                  
$$

ORZ014>016-041-200400-
COLUMBIA GORGE

  
CITY           SKY/WX    TMP DP  RH WIND       PRES   REMARKS
TROUTDALE      LGT RAIN  43  38  82 SW12G21   30.00F                  
HOOD RIVER     CLOUDY    37  34  87 W5        29.94F                  
THE DALLES     CLOUDY    39  32  76 NW10      29.95F                  
$$

ORZ029>031-041-044-049-050-061>064-502-503-505>511-200400-
EASTERN OREGON

  
CITY           SKY/WX    TMP DP  RH WIND       PRES   REMARKS
MADRAS         NOT AVBL                                               
REDMOND        CLOUDY    37  22  54 CALM      29.93F                  
BEND           MOCLDY    34  23  64 SW10G20   29.92F WCI  26          
PRINEVILLE     CLOUDY    34  23  64 W7        29.93F                  
KLAMATH FALLS  CLOUDY    30  21  69 W13       30.00F WCI  20          
LAKEVIEW       CLOUDY    25  16  68 S12       29.95F WCI  14          
HERMISTON      CLOUDY    38  30  73 SW8       29.92F                  
PENDLETON      FLURRIES  35  32  88 SW9       29.90F                  
JOHN DAY       LGT SNOW  30  28  92 SW5       29.90                   
MEACHAM        SNOW      28  25  88 VRB3      29.81F VSB 1/2          
LA GRANDE      LGT SNOW  30  28  92 SE9       29.88F FOG              
BAKER CITY     CLOUDY    29  24  82 E3        29.86F                  
BURNS          CLOUDY    29  21  72 W12       29.89F WCI  19          
ROME             N/A     30  22  72 S6        29.89F                  
ONTARIO        CLOUDY    33  27  78 CALM      29.96F                  
$$